User: anonymous   Login
Location: Unspecified
(0.0000°N, 0.0000°E)
Time: 10:19:47
(UTC+00:00)
Language:

N. Korean satellite - Orbit

View from above orbital plane
View from above orbital plane
View from above satellite
View from above satellite

Ground track
Ground track

The orbit data is extracted from the following two-line orbital elements,

1 39026U 12072A   15142.08164424  .00005554  00000-0  25432-3 0  9992
2 39026 097.2850 174.5232 0045245 328.7469 031.1078 15.19971182134749
Epoch (UTC): 22 May 2015 01:57:34
Eccentricity: 0.0045245
inclination: 97.2850°
perigee height: 475 km
apogee height: 537 km
right ascension of ascending node: 174.5232°
argument of perigee: 328.7469°
revolutions per day: 15.19971182
mean anomaly at epoch: 31.1078°
orbit number at epoch: 13474

The dashed part of the orbit path shows where the satellite is in the earth's shadow,  

DLR